,,,PA_Meas_PMT16A,,PR_Meas_QMR101_102,,RH_Meas_QMH101,,SR_Meas_QMS101,,TA_Meas_QMH101,,GenWind,,GenWind,
date,time,status,PA,status,PR,status,RH,status,SR,status,TA,status,DirAvg,status,SpdAvg,
2010-10-14, 00:00:04,VALID,1006.1,VALID,0,VALID,61.6719,VALID,741.953,VALID,30.3912,VALID,180,VALID,1.71172,
2010-10-14, 00:01:04,VALID,1006.11,VALID,0,VALID,61.3057,VALID,725.763,VALID,30.3717,VALID,203,VALID,2.07891,
2010-10-14, 00:02:04,VALID,1006.09,VALID,0,VALID,62.328,VALID,733.506,VALID,30.1938,VALID,170,VALID,1.86914,
2010-10-14, 00:03:04,VALID,1006.1,VALID,0,VALID,61.9465,VALID,754.423,VALID,30.1766,VALID,202,VALID,1.3207,
2010-10-14, 00:04:04,VALID,1006.09,VALID,0,VALID,62.3814,VALID,766.692,VALID,30.1548,VALID,209,VALID,1.7043,
2010-10-14, 00:05:04,VALID,1006.07,VALID,0,VALID,62.4576,VALID,774.234,VALID,30.0183,VALID,182,VALID,1.69297,
2010-10-14, 00:06:04,VALID,1006.08,VALID,0,VALID,65.8678,VALID,779.061,VALID,29.8623,VALID,177,VALID,1.8668,
2010-10-14, 00:07:04,VALID,1006.03,VALID,0,VALID,64.3649,VALID,784.089,VALID,30.0183,VALID,196,VALID,1.17773,
2010-10-14, 00:08:04,VALID,1006.03,VALID,0,VALID,62.5416,VALID,787.006,VALID,30.1353,VALID,192,VALID,1.7207,
2010-10-14, 00:09:04,VALID,1006.01,VALID,0,VALID,62.7781,VALID,790.726,VALID,30.1766,VALID,190,VALID,2.99688,
2010-10-14, 00:10:04,VALID,1005.96,VALID,0,VALID,63.4494,VALID,792.838,VALID,30.0963,VALID,154,VALID,1.62422,
2010-10-14, 00:11:04,VALID,1005.96,VALID,0,VALID,62.8467,VALID,794.146,VALID,30.0573,VALID,167,VALID,2.24414,
2010-10-14, 00:12:04,VALID,1005.98,VALID,0,VALID,64.4793,VALID,796.76,VALID,30.1353,VALID,225,VALID,1.0793,
2010-10-14, 00:13:04,VALID,1005.94,VALID,0,VALID,63.4189,VALID,796.76,VALID,30.4669,VALID,212,VALID,0.8125,
2010-10-14, 00:14:04,VALID,1005.95,VALID,0,VALID,60.9624,VALID,800.883,VALID,30.8594,VALID,252,VALID,1.16758,
2010-10-14, 00:15:04,VALID,1005.93,VALID,0,VALID,59.8943,VALID,801.788,VALID,30.8742,VALID,213,VALID,2.14297,
2010-10-14, 00:16:04,VALID,1005.92,VALID,0,VALID,60.8174,VALID,805.811,VALID,30.7205,VALID,218,VALID,1.87578,
2010-10-14, 00:17:04,VALID,1005.92,VALID,0,VALID,61.6871,VALID,808.325,VALID,30.5254,VALID,213,VALID,2.00508,
2010-10-14, 00:18:04,VALID,1005.88,VALID,0,VALID,61.3591,VALID,812.046,VALID,30.4279,VALID,182,VALID,1.07344,
2010-10-14, 00:19:04,VALID,1005.85,VALID,0,VALID,63.4647,VALID,812.247,VALID,30.4279,VALID,172,VALID,2.06016,
2010-10-14, 00:20:04,VALID,1005.86,VALID,0,VALID,62.3051,VALID,815.063,VALID,30.4864,VALID,218,VALID,1.23008,
2010-10-14, 00:21:04,VALID,1005.84,VALID,0,VALID,63.8232,VALID,815.264,VALID,30.5644,VALID,183,VALID,1.00547,
2010-10-14, 00:22:04,VALID,1005.86,VALID,0,VALID,61.9541,VALID,819.789,VALID,30.6229,VALID,216,VALID,1.90234,
2010-10-14, 00:23:04,VALID,1005.79,VALID,0,VALID,62.2364,VALID,823.912,VALID,30.5426,VALID,195,VALID,1.85273,
2010-10-14, 00:24:04,VALID,1005.85,VALID,0,VALID,63.457,VALID,826.829,VALID,30.4451,VALID,193,VALID,0.572266,
2010-10-14, 00:25:04,VALID,1005.84,VALID,0,VALID,62.0457,VALID,827.834,VALID,30.5667,VALID,227,VALID,2.12266,
2010-10-14, 00:26:04,VALID,1005.82,VALID,0,VALID,60.1995,VALID,765.083,VALID,30.5644,VALID,211,VALID,1.84375,
2010-10-14, 00:27:04,VALID,1005.8,VALID,0,VALID,62.2364,VALID,831.756,VALID,30.5449,VALID,269,VALID,1.03125,
2010-10-14, 00:28:04,VALID,1005.8,VALID,0,VALID,62.4271,VALID,827.734,VALID,30.701,VALID,229,VALID,1.24531,
2010-10-14, 00:29:04,VALID,1005.79,VALID,0,VALID,60.7259,VALID,833.868,VALID,30.6424,VALID,187,VALID,2.29805,
2010-10-14, 00:30:04,VALID,1005.78,VALID,0,VALID,60.9395,VALID,839.6,VALID,30.4279,VALID,208,VALID,2.37461,
2010-10-14, 00:31:04,VALID,1005.79,VALID,0,VALID,63.5943,VALID,844.427,VALID,30.4084,VALID,232,VALID,0.824219,
2010-10-14, 00:32:04,VALID,1005.75,VALID,0,VALID,65.0667,VALID,840.103,VALID,30.6229,VALID,225,VALID,1.2375,
2010-10-14, 00:33:04,VALID,1005.76,VALID,0,VALID,63.4418,VALID,177.695,VALID,30.818,VALID,218,VALID,1.10664,
2010-10-14, 00:34:04,VALID,1005.73,VALID,0,VALID,59.3069,VALID,852.17,VALID,31.0521,VALID,211,VALID,1.27109,
2010-10-14, 00:35:04,VALID,1005.69,VALID,0,VALID,62.1601,VALID,851.768,VALID,30.9155,VALID,258,VALID,1.24453,
2010-10-14, 00:36:04,VALID,1005.66,VALID,0,VALID,62.3127,VALID,852.874,VALID,31.0521,VALID,218,VALID,1.35977,
2010-10-14, 00:37:04,VALID,1005.65,VALID,0,VALID,61.6642,VALID,231.094,VALID,31.0911,VALID,194,VALID,0.809375,
2010-10-14, 00:38:04,VALID,1005.62,VALID,0,VALID,62.8543,VALID,855.59,VALID,31.152,VALID,168,VALID,1.54492,
2010-10-14, 00:39:04,VALID,1005.6,VALID,0,VALID,62.0686,VALID,194.891,VALID,30.9936,VALID,212,VALID,1.90781,
2010-10-14, 00:40:04,VALID,1005.57,VALID,0,VALID,61.8855,VALID,865.143,VALID,30.8765,VALID,197,VALID,1.45156,
2010-10-14, 00:41:04,VALID,1005.56,VALID,0,VALID,63.5104,VALID,867.255,VALID,30.896,VALID,199,VALID,1.75859,
2010-10-14, 00:42:04,VALID,1005.52,VALID,0,VALID,62.3585,VALID,79.6459,VALID,30.8375,VALID,231,VALID,1.5457,
2010-10-14, 00:43:04,VALID,1005.51,VALID,0,VALID,62.3203,VALID,54.7062,VALID,30.7985,VALID,194,VALID,1.16016,
2010-10-14, 00:44:04,VALID,1005.45,VALID,0,VALID,62.3814,VALID,870.171,VALID,30.662,VALID,216,VALID,2.20898,
2010-10-14, 00:45:04,VALID,1005.44,VALID,0,VALID,64.6242,VALID,873.993,VALID,30.5254,VALID,200,VALID,2.17852,
2010-10-14, 00:46:04,VALID,1005.39,VALID,0,VALID,63.991,VALID,726.366,VALID,30.5644,VALID,201,VALID,1.60586,
2010-10-14, 00:47:04,VALID,1005.34,VALID,0,VALID,62.8238,VALID,877.412,VALID,30.5644,VALID,191,VALID,2.12539,
2010-10-14, 00:48:04,VALID,1005.33,VALID,0,VALID,63.7546,VALID,878.116,VALID,30.3889,VALID,188,VALID,1.9625,
2010-10-14, 00:49:04,VALID,1005.31,VALID,0,VALID,66.4933,VALID,56.1141,VALID,30.4474,VALID,223,VALID,1.22344,
2010-10-14, 00:50:04,VALID,1005.31,VALID,0,VALID,67.2333,VALID,55.6113,VALID,30.779,VALID,199,VALID,1.03125,
2010-10-14, 00:51:04,VALID,1005.32,VALID,0,VALID,64.9981,VALID,57.4214,VALID,31.0131,VALID,237,VALID,0.698828,
2010-10-14, 00:52:04,VALID,1005.29,VALID,0,VALID,61.7939,VALID,59.2316,VALID,31.0131,VALID,170,VALID,1.63555,
2010-10-14, 00:53:04,VALID,1005.27,VALID,0,VALID,63.0527,VALID,896.217,VALID,30.701,VALID,221,VALID,2.14922,
2010-10-14, 00:54:04,VALID,1005.28,VALID,0,VALID,64.4564,VALID,902.955,VALID,30.3694,VALID,189,VALID,1.96797,
2010-10-14, 00:55:04,VALID,1005.27,VALID,0,VALID,62.7094,VALID,909.29,VALID,30.5254,VALID,228,VALID,1.49258,
2010-10-14, 00:56:04,VALID,1005.29,VALID,0,VALID,62.7781,VALID,915.827,VALID,30.6229,VALID,215,VALID,2.6832,
2010-10-14, 00:57:04,VALID,1005.26,VALID,0,VALID,66.0966,VALID,917.235,VALID,30.3476,VALID,222,VALID,1.2293,
2010-10-14, 00:58:04,VALID,1005.26,VALID,0,VALID,64.6624,VALID,927.19,VALID,30.6034,VALID,194,VALID,1.63437,
2010-10-14, 00:59:04,VALID,1005.25,VALID,0,VALID,64.4717,VALID,937.146,VALID,30.6424,VALID,202,VALID,2.17305,
2010-10-14, 01:00:04,VALID,1005.26,VALID,0,VALID,63.1748,VALID,949.314,VALID,30.5644,VALID,219,VALID,2.0668,
2010-10-14, 01:01:04,VALID,1005.26,VALID,0,VALID,64.7005,VALID,121.48,VALID,30.5449,VALID,203,VALID,1.64922,
2010-10-14, 01:02:04,VALID,1005.21,VALID,0,VALID,64.9523,VALID,713.293,VALID,30.5254,VALID,215,VALID,2.15625,
2010-10-14, 01:03:04,VALID,1005.18,VALID,0,VALID,63.457,VALID,829.845,VALID,30.5644,VALID,219,VALID,1.74961,
2010-10-14, 01:04:04,VALID,1005.2,VALID,0,VALID,62.5263,VALID,772.122,VALID,30.5449,VALID,228,VALID,2.3207,
2010-10-14, 01:05:04,VALID,1005.12,VALID,0,VALID,63.4113,VALID,1013.67,VALID,30.5449,VALID,208,VALID,1.96484,
2010-10-14, 01:06:04,VALID,1005.1,VALID,0,VALID,64.0368,VALID,1025.34,VALID,30.4474,VALID,198,VALID,1.55391,
2010-10-14, 01:07:04,VALID,1005.08,VALID,0,VALID,64.2275,VALID,261.966,VALID,30.3912,VALID,181,VALID,1.39844,
2010-10-14, 01:08:04,VALID,1005.06,VALID,0,VALID,64.2809,VALID,591.914,VALID,30.4084,VALID,191,VALID,2.44453,
2010-10-14, 01:09:04,VALID,1005.06,VALID,0,VALID,65.9593,VALID,978.477,VALID,30.5254,VALID,258,VALID,1.24492,
2010-10-14, 01:10:04,VALID,1005.06,VALID,0,VALID,64.7158,VALID,1082.26,VALID,30.7985,VALID,224,VALID,1.65625,
2010-10-14, 01:11:04,VALID,1005.03,VALID,0,VALID,61.9847,VALID,981.997,VALID,30.8984,VALID,192,VALID,1.62617,
2010-10-14, 01:12:04,VALID,1005,VALID,0,VALID,62.4958,VALID,970.734,VALID,30.857,VALID,200,VALID,1.49805,
2010-10-14, 01:13:04,VALID,1005,VALID,0,VALID,63.3807,VALID,964.298,VALID,30.896,VALID,214,VALID,1.1082,
2010-10-14, 01:14:04,VALID,1004.96,VALID,0,VALID,65.082,VALID,746.479,VALID,31.0107,VALID,303,VALID,0.703125,
2010-10-14, 01:15:04,VALID,1004.98,VALID,0,VALID,63.1214,VALID,895.815,VALID,31.2082,VALID,272,VALID,1.76328,
2010-10-14, 01:16:04,VALID,1004.96,VALID,0,VALID,59.1849,VALID,820.594,VALID,31.4618,VALID,254,VALID,1.34492,
2010-10-14, 01:17:04,VALID,1004.96,VALID,0,VALID,55.0881,VALID,622.987,VALID,31.6569,VALID,263,VALID,1.60117,
2010-10-14, 01:18:04,VALID,1004.94,VALID,0,VALID,56.3088,VALID,681.817,VALID,31.6569,VALID,219,VALID,0.664063,
2010-10-14, 01:19:04,VALID,1004.91,VALID,0,VALID,60.2224,VALID,596.942,VALID,31.735,VALID,221,VALID,1.11289,
2010-10-14, 01:20:04,VALID,1004.95,VALID,0,VALID,56.6597,VALID,606.897,VALID,31.7326,VALID,279,VALID,2.84805,
2010-10-14, 01:21:04,VALID,1004.94,VALID,0,VALID,58.3304,VALID,546.157,VALID,31.5399,VALID,224,VALID,1.22422,
2010-10-14, 01:22:04,VALID,1004.94,VALID,0,VALID,57.5828,VALID,714.198,VALID,31.2472,VALID,254,VALID,1.55547,
2010-10-14, 01:23:04,VALID,1004.93,VALID,0,VALID,57.4455,VALID,590.606,VALID,30.9546,VALID,213,VALID,1.79844,
2010-10-14, 01:24:04,VALID,1004.92,VALID,0,VALID,61.6337,VALID,569.689,VALID,30.7595,VALID,208,VALID,1.14648,
2010-10-14, 01:25:04,VALID,1004.88,VALID,0,VALID,62.3432,VALID,570.996,VALID,30.5839,VALID,235,VALID,1.34336,
2010-10-14, 01:26:04,VALID,1004.87,VALID,0,VALID,60.8479,VALID,954.946,VALID,30.4864,VALID,217,VALID,1.87969,
2010-10-14, 01:27:04,VALID,1004.84,VALID,0,VALID,63.2205,VALID,620.976,VALID,30.5254,VALID,205,VALID,0.989844,
2010-10-14, 01:28:04,VALID,1004.85,VALID,0,VALID,65.0362,VALID,763.675,VALID,30.6838,VALID,226,VALID,0.715234,
2010-10-14, 01:29:04,VALID,1004.79,VALID,0,VALID,65.3566,VALID,1439.16,VALID,30.7205,VALID,223,VALID,0.759766,
2010-10-14, 01:30:04,VALID,1004.8,VALID,0,VALID,64.9599,VALID,537.107,VALID,30.8765,VALID,214,VALID,0.832422,
2010-10-14, 01:31:04,VALID,1004.79,VALID,0,VALID,63.1976,VALID,822.605,VALID,30.9351,VALID,225,VALID,1.6125,
2010-10-14, 01:32:04,VALID,1004.77,VALID,0,VALID,63.724,VALID,771.921,VALID,31.0131,VALID,231,VALID,1.20586,
2010-10-14, 01:33:04,VALID,1004.74,VALID,0,VALID,64.9141,VALID,640.787,VALID,31.0326,VALID,239,VALID,0.660937,
2010-10-14, 01:34:04,VALID,1004.72,VALID,0,VALID,62.7018,VALID,1207.26,VALID,31.1887,VALID,204,VALID,2.03477,
2010-10-14, 01:35:04,VALID,1004.68,VALID,0,VALID,62.1143,VALID,669.649,VALID,31.0911,VALID,221,VALID,1.59258,
2010-10-14, 01:36:04,VALID,1004.66,VALID,0,VALID,64.609,VALID,676.185,VALID,30.8765,VALID,184,VALID,1.68633,
2010-10-14, 01:37:04,VALID,1004.64,VALID,0,VALID,65.3566,VALID,605.288,VALID,30.7205,VALID,263,VALID,0.756641,
2010-10-14, 01:38:04,VALID,1004.62,VALID,0,VALID,67.4927,VALID,583.366,VALID,30.74,VALID,247,VALID,0.490234,
2010-10-14, 01:39:04,VALID,1004.62,VALID,0,VALID,67.0731,VALID,611.523,VALID,30.896,VALID,244,VALID,0.880469,
2010-10-14, 01:40:04,VALID,1004.59,VALID,0,VALID,64.9904,VALID,837.689,VALID,31.0326,VALID,270,VALID,1.11172,
2010-10-14, 01:41:04,VALID,1004.56,VALID,0,VALID,63.0832,VALID,566.471,VALID,30.9741,VALID,209,VALID,1.91797,
2010-10-14, 01:42:04,VALID,1004.53,VALID,0,VALID,64.0902,VALID,649.234,VALID,30.6815,VALID,199,VALID,1.61992,
2010-10-14, 01:43:04,VALID,1004.51,VALID,0,VALID,64.9218,VALID,867.557,VALID,30.5254,VALID,209,VALID,1.4625,
2010-10-14, 01:44:04,VALID,1004.47,VALID,0,VALID,64.7692,VALID,979.885,VALID,30.4474,VALID,182,VALID,2.1625,
2010-10-14, 01:45:04,VALID,1004.47,VALID,0,VALID,66.4781,VALID,1172.36,VALID,30.4864,VALID,186,VALID,2.35469,
2010-10-14, 01:46:04,VALID,1004.44,VALID,0,VALID,64.7692,VALID,1223.95,VALID,30.6229,VALID,221,VALID,1.87305,
2010-10-14, 01:47:04,VALID,1004.43,VALID,0,VALID,67.0807,VALID,1249.8,VALID,30.8375,VALID,221,VALID,0.770312,
2010-10-14, 01:48:04,VALID,1004.41,VALID,0,VALID,66.501,VALID,988.634,VALID,31.1692,VALID,266,VALID,0.941797,
2010-10-14, 01:49:04,VALID,1004.36,VALID,0,VALID,64.1131,VALID,1220.53,VALID,31.6179,VALID,216,VALID,0.791016,
2010-10-14, 01:50:04,VALID,1004.33,VALID,0,VALID,60.5123,VALID,1122.58,VALID,31.7155,VALID,184,VALID,2.62344,
2010-10-14, 01:51:04,VALID,1004.3,VALID,0,VALID,62.3127,VALID,710.477,VALID,31.4423,VALID,175,VALID,2.55898,
2010-10-14, 01:52:04,VALID,1004.28,VALID,0,VALID,64.5861,VALID,858.808,VALID,31.1887,VALID,207,VALID,2.21094,
2010-10-14, 01:53:04,VALID,1004.24,VALID,0,VALID,64.3344,VALID,997.082,VALID,31.1106,VALID,174,VALID,1.56758,
2010-10-14, 01:54:04,VALID,1004.24,VALID,0,VALID,63.0146,VALID,1260.86,VALID,30.9132,VALID,168,VALID,2.60781,
2010-10-14, 01:55:04,VALID,1004.16,VALID,0,VALID,64.5785,VALID,881.635,VALID,30.6424,VALID,223,VALID,2.55352,
2010-10-14, 01:56:04,VALID,1004.14,VALID,0,VALID,63.9605,VALID,1211.68,VALID,30.4084,VALID,185,VALID,2.23711,
2010-10-14, 01:57:04,VALID,1004.13,VALID,0,VALID,66.6383,VALID,612.931,VALID,30.4279,VALID,183,VALID,2.01953,
2010-10-14, 01:58:04,VALID,1004.13,VALID,0,VALID,64.9447,VALID,1142.29,VALID,30.6034,VALID,230,VALID,2.56445,
2010-10-14, 01:59:04,VALID,1004.15,VALID,0,VALID,66.9587,VALID,574.416,VALID,30.5059,VALID,304,VALID,0.910156,
2010-10-14, 02:00:04,VALID,1004.15,VALID,0,VALID,65.944,VALID,627.714,VALID,30.4864,VALID,240,VALID,1.51914,
2010-10-14, 02:01:04,VALID,1004.13,VALID,0,VALID,66.4857,VALID,640.184,VALID,30.5059,VALID,209,VALID,1.58594,
2010-10-14, 02:02:04,VALID,1004.1,VALID,0,VALID,65.6541,VALID,687.851,VALID,30.4669,VALID,181,VALID,2.00273,
2010-10-14, 02:03:04,VALID,1004.07,VALID,0,VALID,65.8754,VALID,598.651,VALID,30.2328,VALID,201,VALID,2.59922,
2010-10-14, 02:04:04,VALID,1004.06,VALID,0,VALID,67.897,VALID,1235.72,VALID,30.016,VALID,230,VALID,1.00273,
2010-10-14, 02:05:04,VALID,1004.07,VALID,0,VALID,69.316,VALID,1119.37,VALID,30.094,VALID,230,VALID,1.40625,
2010-10-14, 02:06:04,VALID,1004.02,VALID,0,VALID,66.7451,VALID,1156.37,VALID,30.3304,VALID,209,VALID,1.10742,
2010-10-14, 02:07:04,VALID,1004.02,VALID,0,VALID,67.0426,VALID,1203.14,VALID,30.4279,VALID,177,VALID,2.42109,
2010-10-14, 02:08:04,VALID,1003.99,VALID,0,VALID,67.6529,VALID,1000.6,VALID,30.4061,VALID,177,VALID,1.18789,
2010-10-14, 02:09:04,VALID,1004.03,VALID,0,VALID,67.0045,VALID,1128.72,VALID,30.4669,VALID,202,VALID,1.57187,
2010-10-14, 02:10:04,VALID,1003.95,VALID,0,VALID,66.1119,VALID,1187.65,VALID,30.5621,VALID,184,VALID,2.12148,
2010-10-14, 02:11:04,VALID,1003.91,VALID,0,VALID,67.8131,VALID,1025.64,VALID,30.662,VALID,184,VALID,1.26484,
2010-10-14, 02:12:04,VALID,1003.92,VALID,0,VALID,65.8449,VALID,1151.04,VALID,30.857,VALID,226,VALID,1.7457,
2010-10-14, 02:13:04,VALID,1003.87,VALID,0,VALID,66.9739,VALID,939.861,VALID,30.8157,VALID,203,VALID,1.20117,
2010-10-14, 02:14:04,VALID,1003.9,VALID,0,VALID,62.9993,VALID,1105.59,VALID,30.9327,VALID,217,VALID,2.98555,
2010-10-14, 02:15:04,VALID,1003.87,VALID,0,VALID,65.4634,VALID,1023.93,VALID,30.8375,VALID,186,VALID,2.11953,
2010-10-14, 02:16:04,VALID,1003.84,VALID,0,VALID,65.6999,VALID,1071,VALID,30.9132,VALID,195,VALID,2.05273,
2010-10-14, 02:17:04,VALID,1003.82,VALID,0,VALID,63.8842,VALID,1055.11,VALID,30.8547,VALID,196,VALID,2.63906,
2010-10-14, 02:18:04,VALID,1003.81,VALID,0,VALID,64.1818,VALID,1041.83,VALID,30.9546,VALID,243,VALID,1.58555,
2010-10-14, 02:19:04,VALID,1003.75,VALID,0,VALID,60.1079,VALID,1038.41,VALID,31.2253,VALID,284,VALID,1.52148,
2010-10-14, 02:20:04,VALID,1003.76,VALID,0,VALID,61.6871,VALID,1035.4,VALID,31.5203,VALID,265,VALID,1.53555,
2010-10-14, 02:21:04,VALID,1003.71,VALID,0,VALID,63.2739,VALID,1035.8,VALID,31.7521,VALID,226,VALID,0.763281,
2010-10-14, 02:22:04,VALID,1003.69,VALID,0,VALID,61.4354,VALID,1030.97,VALID,31.7131,VALID,200,VALID,1.51719,
2010-10-14, 02:23:04,VALID,1003.67,VALID,0,VALID,62.4119,VALID,1023.83,VALID,31.5594,VALID,230,VALID,0.578125,
2010-10-14, 02:24:04,VALID,1003.67,VALID,0,VALID,63.457,VALID,1021.52,VALID,31.518,VALID,256,VALID,1.40859,
2010-10-14, 02:25:04,VALID,1003.68,VALID,0,VALID,61.9618,VALID,1024.13,VALID,31.6374,VALID,243,VALID,1.92734,
2010-10-14, 02:26:04,VALID,1003.63,VALID,0,VALID,61.2065,VALID,1018.1,VALID,31.6569,VALID,258,VALID,1.21172,
2010-10-14, 02:27:04,VALID,1003.61,VALID,0,VALID,60.0545,VALID,1016.99,VALID,31.7545,VALID,216,VALID,1.3043,
2010-10-14, 02:28:04,VALID,1003.6,VALID,0,VALID,61.4811,VALID,1016.39,VALID,31.8106,VALID,209,VALID,2.42266,
2010-10-14, 02:29:04,VALID,1003.57,VALID,0,VALID,64.8684,VALID,1018.9,VALID,31.7545,VALID,232,VALID,0.653516,
2010-10-14, 02:30:04,VALID,1003.62,VALID,0,VALID,60.6649,VALID,1018.6,VALID,31.9301,VALID,266,VALID,1.79219,
2010-10-14, 02:31:04,VALID,1003.58,VALID,0,VALID,62.8162,VALID,1013.07,VALID,31.7131,VALID,169,VALID,1.11836,
2010-10-14, 02:32:04,VALID,1003.56,VALID,0,VALID,61.9389,VALID,1018.1,VALID,31.5765,VALID,210,VALID,2.29727,
2010-10-14, 02:33:04,VALID,1003.53,VALID,0,VALID,62.9154,VALID,1018.7,VALID,31.4618,VALID,298,VALID,1.64922,
2010-10-14, 02:34:04,VALID,1003.54,VALID,0,VALID,63.7088,VALID,1015.99,VALID,31.4984,VALID,245,VALID,0.994141,
2010-10-14, 02:35:04,VALID,1003.55,VALID,0,VALID,62.0381,VALID,1016.49,VALID,31.5789,VALID,204,VALID,1.53789,
2010-10-14, 02:36:04,VALID,1003.5,VALID,0,VALID,61.6719,VALID,1019,VALID,31.6569,VALID,109,VALID,0.797656,
2010-10-14, 02:37:04,VALID,1003.5,VALID,0,VALID,62.3814,VALID,1020.71,VALID,31.7131,VALID,214,VALID,2.33984,
2010-10-14, 02:38:04,VALID,1003.46,VALID,0,VALID,59.902,VALID,1022.02,VALID,31.5203,VALID,194,VALID,2.25117,
2010-10-14, 02:39:04,VALID,1003.47,VALID,0,VALID,61.0387,VALID,1020.71,VALID,31.1473,VALID,208,VALID,1.78359,
2010-10-14, 02:40:04,VALID,1003.46,VALID,0,VALID,63.5943,VALID,1021.42,VALID,31.1496,VALID,191,VALID,1.57266,
2010-10-14, 02:41:04,VALID,1003.44,VALID,0,VALID,64.2199,VALID,1027.95,VALID,31.2667,VALID,224,VALID,1.10078,
2010-10-14, 02:42:04,VALID,1003.38,VALID,0,VALID,62.9459,VALID,1028.76,VALID,31.4204,VALID,311,VALID,0.712891,
2010-10-14, 02:43:04,VALID,1003.39,VALID,0,VALID,59.3451,VALID,1035.3,VALID,31.6545,VALID,201,VALID,1.8875,
2010-10-14, 02:44:04,VALID,1003.36,VALID,0,VALID,57.6286,VALID,1038.11,VALID,31.4594,VALID,188,VALID,1.90273,
2010-10-14, 02:45:04,VALID,1003.27,VALID,0,VALID,61.3743,VALID,1041.33,VALID,31.3057,VALID,231,VALID,2.00859,
2010-10-14, 02:46:04,VALID,1003.29,VALID,0,VALID,62.183,VALID,1040.32,VALID,31.2253,VALID,229,VALID,1.11172,
2010-10-14, 02:47:04,VALID,1003.23,VALID,0,VALID,61.9084,VALID,1043.04,VALID,31.3643,VALID,180,VALID,1.70313,
2010-10-14, 02:48:04,VALID,1003.24,VALID,0,VALID,61.3362,VALID,1047.46,VALID,31.3424,VALID,193,VALID,2.62344,
2010-10-14, 02:49:04,VALID,1003.25,VALID,0,VALID,62.5339,VALID,1047.36,VALID,31.0888,VALID,187,VALID,2.09922,
2010-10-14, 02:50:04,VALID,1003.24,VALID,0,VALID,61.7558,VALID,1049.07,VALID,31.0716,VALID,211,VALID,2.07383,
2010-10-14, 02:51:04,VALID,1003.25,VALID,0,VALID,64.0521,VALID,1046.86,VALID,30.8937,VALID,203,VALID,0.954297,
2010-10-14, 02:52:04,VALID,1003.22,VALID,0,VALID,64.403,VALID,1049.37,VALID,31.1301,VALID,201,VALID,1.29297,
2010-10-14, 02:53:04,VALID,1003.25,VALID,0,VALID,59.6121,VALID,1049.17,VALID,31.0888,VALID,221,VALID,2.73164,
2010-10-14, 02:54:04,VALID,1003.22,VALID,0,VALID,60.6038,VALID,1047.77,VALID,31.1301,VALID,224,VALID,1.56406,
2010-10-14, 02:55:04,VALID,1003.2,VALID,0,VALID,60.642,VALID,1045.75,VALID,31.1083,VALID,218,VALID,1.83945,
2010-10-14, 02:56:04,VALID,1003.18,VALID,0,VALID,62.6026,VALID,1041.03,VALID,31.1473,VALID,204,VALID,1.29688,
2010-10-14, 02:57:04,VALID,1003.17,VALID,0,VALID,61.8473,VALID,1041.43,VALID,31.3447,VALID,239,VALID,1.70156,
2010-10-14, 02:58:04,VALID,1003.15,VALID,0,VALID,64.6548,VALID,1048.07,VALID,31.2472,VALID,226,VALID,1.49219,
2010-10-14, 02:59:04,VALID,1003.13,VALID,0,VALID,63.6172,VALID,1048.97,VALID,31.5008,VALID,260,VALID,0.926953,
2010-10-14, 03:00:04,VALID,1003.08,VALID,0,VALID,58.1321,VALID,932.017,VALID,31.596,VALID,206,VALID,2.04883,
2010-10-14, 03:01:04,VALID,1003.09,VALID,0,VALID,61.6185,VALID,858.405,VALID,31.5399,VALID,210,VALID,1.75664,
2010-10-14, 03:02:04,VALID,1003.05,VALID,0,VALID,63.9453,VALID,1051.18,VALID,31.4984,VALID,178,VALID,1.24531,
2010-10-14, 03:03:04,VALID,1003.1,VALID,0,VALID,62.389,VALID,1025.84,VALID,31.5008,VALID,293,VALID,1.09336,
2010-10-14, 03:04:04,VALID,1003.04,VALID,0,VALID,61.8168,VALID,1013.78,VALID,31.6179,VALID,165,VALID,1.13828,
2010-10-14, 03:05:04,VALID,1003.04,VALID,0,VALID,60.1766,VALID,1023.13,VALID,31.635,VALID,193,VALID,2.42227,
2010-10-14, 03:06:04,VALID,1003.05,VALID,0,VALID,60.3368,VALID,1022.83,VALID,31.5008,VALID,213,VALID,1.9793,
2010-10-14, 03:07:04,VALID,1003.01,VALID,0,VALID,61.4201,VALID,1019,VALID,31.5203,VALID,257,VALID,1.125,
2010-10-14, 03:08:04,VALID,1003.03,VALID,0,VALID,60.1079,VALID,1018.5,VALID,31.635,VALID,284,VALID,1.66016,
2010-10-14, 03:09:04,VALID,1003.04,VALID,0,VALID,57.4912,VALID,1019.41,VALID,31.8716,VALID,275,VALID,1.30469,
2010-10-14, 03:10:04,VALID,1003.03,VALID,0,VALID,56.7589,VALID,1023.43,VALID,32.0862,VALID,193,VALID,1.82344,
2010-10-14, 03:11:04,VALID,1003.06,VALID,0,VALID,57.5828,VALID,1021.52,VALID,31.9301,VALID,219,VALID,2.32734,
2010-10-14, 03:12:04,VALID,1003.01,VALID,0,VALID,59.9325,VALID,1022.52,VALID,31.7155,VALID,200,VALID,1.42031,
2010-10-14, 03:13:04,VALID,1003,VALID,0,VALID,63.4494,VALID,1026.75,VALID,31.7545,VALID,233,VALID,0.973828,
2010-10-14, 03:14:04,VALID,1002.99,VALID,0,VALID,60.6267,VALID,1030.77,VALID,31.7521,VALID,176,VALID,2.30078,
2010-10-14, 03:15:04,VALID,1002.97,VALID,0,VALID,60.1232,VALID,1031.68,VALID,31.5203,VALID,178,VALID,1.66094,
2010-10-14, 03:16:04,VALID,1002.95,VALID,0,VALID,59.9783,VALID,1032.08,VALID,31.4618,VALID,240,VALID,1.07695,
2010-10-14, 03:17:04,VALID,1002.91,VALID,0,VALID,58.2694,VALID,1035.9,VALID,31.6569,VALID,210,VALID,1.71016,
2010-10-14, 03:18:04,VALID,1002.88,VALID,0,VALID,57.7354,VALID,1037.61,VALID,31.7935,VALID,277,VALID,1.19648,
2010-10-14, 03:19:04,VALID,1002.89,VALID,0,VALID,60.5047,VALID,1039.42,VALID,31.9911,VALID,253,VALID,0.633203,
2010-10-14, 03:20:04,VALID,1002.87,VALID,0,VALID,57.5065,VALID,1047.16,VALID,32.2033,VALID,219,VALID,2.49883,
2010-10-14, 03:21:04,VALID,1002.84,VALID,0,VALID,59.2764,VALID,1064.86,VALID,31.9301,VALID,212,VALID,1.82031,
2010-10-14, 03:22:04,VALID,1002.82,VALID,0,VALID,61.0463,VALID,774.938,VALID,31.7545,VALID,218,VALID,1.99023,
2010-10-14, 03:23:04,VALID,1002.81,VALID,0,VALID,63.5181,VALID,741.35,VALID,31.813,VALID,7,VALID,0.649219,
2010-10-14, 03:24:04,VALID,1002.82,VALID,0,VALID,58.4906,VALID,1068.98,VALID,31.8911,VALID,187,VALID,2.45898,
2010-10-14, 03:25:04,VALID,1002.81,VALID,0,VALID,59.284,VALID,1182.72,VALID,31.9496,VALID,197,VALID,0.633203,
2010-10-14, 03:26:04,VALID,1002.8,VALID,0,VALID,55.9121,VALID,673.168,VALID,32.1057,VALID,272,VALID,0.914453,
2010-10-14, 03:27:04,VALID,1002.76,VALID,0,VALID,52.2883,VALID,670.151,VALID,32.1838,VALID,194,VALID,1.21133,
2010-10-14, 03:28:04,VALID,1002.77,VALID,0,VALID,56.2783,VALID,591.612,VALID,32.1838,VALID,204,VALID,0.416797,
2010-10-14, 03:29:04,VALID,1002.75,VALID,0,VALID,53.3488,VALID,612.931,VALID,32.2033,VALID,246,VALID,1.5957,
2010-10-14, 03:30:04,VALID,1002.77,VALID,0,VALID,55.7595,VALID,795.352,VALID,32.0082,VALID,225,VALID,1.3875,
2010-10-14, 03:31:04,VALID,1002.76,VALID,0,VALID,55.0119,VALID,796.157,VALID,31.6936,VALID,238,VALID,2.05,
2010-10-14, 03:32:04,VALID,1002.7,VALID,0,VALID,56.9267,VALID,654.966,VALID,31.4423,VALID,193,VALID,2.81484,
2010-10-14, 03:33:04,VALID,1002.7,VALID,0,VALID,59.078,VALID,839.6,VALID,31.1692,VALID,209,VALID,3.58984,
2010-10-14, 03:34:04,VALID,1002.68,VALID,0,VALID,60.5275,VALID,634.351,VALID,31.0131,VALID,192,VALID,2.61406,